When you browse on this site, cookies collect data to enhance your experience and personalize the content and advertising you see.
Visit our Privacy Policy to learn more. By continuing to use the site, you agree to this use of cookies and data.
  • în România
  • Lista ţărilor
  • Pe 7 zile
  • Temperatura apei
  • Meteo pe hartă
  • Widget-uri
  • user-avatar
    Intrare

    Meteo pe oră la Zamosc

    Astăzi, 25 Mai, Luni

    Timp Temperatura Precipitaţii Vânt Presiune Umiditate
    00:00 +7°C° 0 mm 2 m/s 739 mmHg 91%
    01:00 +7°C° 0 mm 2 m/s 739 mmHg 92%
    02:00 +7°C° 0 mm 1 m/s 739 mmHg 93%
    03:00 +7°C° 0 mm 2 m/s 739 mmHg 93%
    04:00 +7°C° 0 mm 2 m/s 739 mmHg 93%
    05:00 +8°C° 0 mm 2 m/s 740 mmHg 92%
    06:00 +8°C° 0.1 mm 2 m/s 740 mmHg 92%
    07:00 +9°C° 0.1 mm 3 m/s 740 mmHg 91%
    08:00 +10°C° 0 mm 3 m/s 740 mmHg 91%
    09:00 +11°C° 0.5 mm 3 m/s 740 mmHg 86%
    10:00 +12°C° 0.5 mm 3 m/s 740 mmHg 81%
    11:00 +14°C° 0.5 mm 2 m/s 740 mmHg 75%
    12:00 +13°C° 1 mm 3 m/s 740 mmHg 75%
    13:00 +14°C° 1 mm 3 m/s 740 mmHg 75%
    14:00 +14°C° 1 mm 3 m/s 739 mmHg 75%
    15:00 +14°C° 0.6 mm 3 m/s 739 mmHg 75%
    16:00 +14°C° 0.6 mm 3 m/s 739 mmHg 76%
    17:00 +14°C° 0.6 mm 3 m/s 739 mmHg 76%
    18:00 +13°C° 0.5 mm 3 m/s 739 mmHg 80%
    19:00 +13°C° 0.5 mm 2 m/s 739 mmHg 84%
    20:00 +12°C° 0.5 mm 2 m/s 739 mmHg 87%
    21:00 +10°C° 0.2 mm 2 m/s 740 mmHg 88%
    22:00 +9°C° 0.2 mm 2 m/s 740 mmHg 90%
    23:00 +8°C° 0.2 mm 2 m/s 740 mmHg 91%

    Mâine, 26 Mai, Marţi

    Timp Temperatura Precipitaţii Vânt Presiune Umiditate
    00:00 +8°C° 0 mm 2 m/s 740 mmHg 91%
    01:00 +8°C° 0 mm 2 m/s 740 mmHg 92%
    02:00 +7°C° 0 mm 2 m/s 740 mmHg 92%
    03:00 +7°C° 0 mm 2 m/s 741 mmHg 93%
    04:00 +7°C° 0 mm 2 m/s 741 mmHg 94%
    05:00 +6°C° 0 mm 2 m/s 741 mmHg 95%
    06:00 +8°C° 0 mm 3 m/s 741 mmHg 92%
    07:00 +10°C° 0 mm 3 m/s 742 mmHg 89%
    08:00 +12°C° 0 mm 3 m/s 742 mmHg 86%
    09:00 +13°C° 0.8 mm 4 m/s 742 mmHg 81%
    10:00 +14°C° 0.8 mm 4 m/s 742 mmHg 76%
    11:00 +15°C° 0.8 mm 4 m/s 742 mmHg 71%
    12:00 +15°C° 0.9 mm 4 m/s 742 mmHg 72%
    13:00 +16°C° 0.9 mm 5 m/s 742 mmHg 72%
    14:00 +16°C° 0.9 mm 5 m/s 742 mmHg 73%
    15:00 +15°C° 0.7 mm 5 m/s 742 mmHg 75%
    16:00 +15°C° 0.7 mm 5 m/s 742 mmHg 76%
    17:00 +15°C° 0.7 mm 5 m/s 741 mmHg 78%
    18:00 +14°C° 0.4 mm 4 m/s 742 mmHg 82%
    19:00 +13°C° 0.4 mm 4 m/s 742 mmHg 87%
    20:00 +12°C° 0.4 mm 3 m/s 742 mmHg 91%
    21:00 +11°C° 0 mm 3 m/s 742 mmHg 92%
    22:00 +10°C° 0 mm 3 m/s 742 mmHg 94%
    23:00 +9°C° 0 mm 2 m/s 742 mmHg 95%

    Poimâine, 27 Mai, Miercuri

    Timp Temperatura Precipitaţii Vânt Presiune Umiditate
    00:00 +9°C° 0 mm 2 m/s 742 mmHg 95%
    01:00 +9°C° 0 mm 2 m/s 742 mmHg 95%
    02:00 +8°C° 0 mm 2 m/s 742 mmHg 95%
    03:00 +8°C° 0 mm 2 m/s 742 mmHg 95%
    04:00 +8°C° 0 mm 2 m/s 742 mmHg 96%
    05:00 +8°C° 0 mm 2 m/s 742 mmHg 96%
    06:00 +10°C° 0 mm 3 m/s 742 mmHg 94%
    07:00 +11°C° 0 mm 3 m/s 742 mmHg 91%
    08:00 +12°C° 0 mm 3 m/s 743 mmHg 89%
    09:00 +14°C° 0.5 mm 4 m/s 742 mmHg 83%
    10:00 +15°C° 0.5 mm 4 m/s 742 mmHg 77%
    11:00 +17°C° 0.5 mm 4 m/s 742 mmHg 71%
    12:00 +18°C° 0.5 mm 4 m/s 742 mmHg 70%
    13:00 +18°C° 0.5 mm 4 m/s 742 mmHg 68%
    14:00 +18°C° 0.5 mm 4 m/s 741 mmHg 67%
    15:00 +18°C° 0.8 mm 4 m/s 741 mmHg 70%
    16:00 +17°C° 0.8 mm 4 m/s 741 mmHg 73%
    17:00 +17°C° 0.8 mm 4 m/s 740 mmHg 76%
    18:00 +15°C° 0.3 mm 4 m/s 740 mmHg 80%
    19:00 +14°C° 0.3 mm 3 m/s 740 mmHg 83%
    20:00 +12°C° 0.3 mm 3 m/s 740 mmHg 86%
    21:00 +11°C° 0 mm 3 m/s 740 mmHg 88%
    22:00 +10°C° 0 mm 3 m/s 740 mmHg 90%
    23:00 +9°C° 0 mm 3 m/s 740 mmHg 92%

    28 Mai, Joi

    Timp Temperatura Precipitaţii Vânt Presiune Umiditate
    00:00 +9°C° 0 mm 3 m/s 740 mmHg 92%
    01:00 +9°C° 0 mm 3 m/s 740 mmHg 92%
    02:00 +8°C° 0 mm 2 m/s 740 mmHg 92%
    03:00 +8°C° 0 mm 2 m/s 739 mmHg 93%
    04:00 +8°C° 0 mm 2 m/s 739 mmHg 93%
    05:00 +8°C° 0 mm 2 m/s 739 mmHg 93%
    06:00 +9°C° 0 mm 2 m/s 739 mmHg 90%
    07:00 +12°C° 0 mm 2 m/s 739 mmHg 87%
    08:00 +12°C° 0 mm 3 m/s 739 mmHg 84%
    09:00 +13°C° 0.3 mm 3 m/s 739 mmHg 80%
    10:00 +13°C° 0.3 mm 4 m/s 739 mmHg 76%
    11:00 +14°C° 0.3 mm 5 m/s 739 mmHg 72%
    12:00 +15°C° 0.1 mm 5 m/s 738 mmHg 71%
    13:00 +15°C° 0.1 mm 4 m/s 738 mmHg 70%
    14:00 +15°C° 0.1 mm 4 m/s 737 mmHg 69%
    15:00 +15°C° 0.2 mm 4 m/s 737 mmHg 69%
    16:00 +15°C° 0.2 mm 4 m/s 737 mmHg 70%
    17:00 +15°C° 0.2 mm 4 m/s 737 mmHg 70%
    18:00 +14°C° 0 mm 4 m/s 737 mmHg 73%
    19:00 +13°C° 0 mm 3 m/s 736 mmHg 77%
    20:00 +12°C° 0 mm 3 m/s 736 mmHg 81%
    21:00 +10°C° 0 mm 3 m/s 736 mmHg 85%
    22:00 +9°C° 0 mm 3 m/s 736 mmHg 89%
    23:00 +8°C° 0 mm 3 m/s 736 mmHg 94%

    29 Mai, Vineri

    Timp Temperatura Precipitaţii Vânt Presiune Umiditate
    00:00 +8°C° 0 mm 3 m/s 736 mmHg 95%
    01:00 +7°C° 0 mm 3 m/s 736 mmHg 96%
    02:00 +6°C° 0 mm 4 m/s 736 mmHg 97%
    03:00 +6°C° 0 mm 4 m/s 736 mmHg 96%
    04:00 +5°C° 0 mm 4 m/s 736 mmHg 96%
    05:00 +5°C° 0 mm 4 m/s 736 mmHg 96%
    06:00 +5°C° 0 mm 4 m/s 736 mmHg 93%
    07:00 +6°C° 0 mm 4 m/s 736 mmHg 91%
    08:00 +6°C° 0 mm 5 m/s 736 mmHg 89%
    09:00 +7°C° 0.1 mm 4 m/s 736 mmHg 88%
    10:00 +7°C° 0.1 mm 4 m/s 737 mmHg 88%
    11:00 +7°C° 0.1 mm 4 m/s 737 mmHg 87%
    12:00 +8°C° 0.2 mm 4 m/s 736 mmHg 81%
    13:00 +11°C° 0.2 mm 4 m/s 736 mmHg 75%
    14:00 +12°C° 0.2 mm 4 m/s 736 mmHg 68%
    15:00 +13°C° 0 mm 4 m/s 736 mmHg 66%
    16:00 +13°C° 0 mm 4 m/s 736 mmHg 63%
    17:00 +13°C° 0 mm 3 m/s 735 mmHg 61%
    18:00 +12°C° 0 mm 3 m/s 735 mmHg 66%
    19:00 +12°C° 0 mm 2 m/s 736 mmHg 71%
    20:00 +9°C° 0 mm 2 m/s 736 mmHg 77%
    21:00 +8°C° 0 mm 2 m/s 736 mmHg 78%
    22:00 +9°C° 0 mm 1 m/s 736 mmHg 79%
    23:00 +8°C° 0 mm 1 m/s 736 mmHg 80%

    30 Mai, Sâmbătă

    Timp Temperatura Precipitaţii Vânt Presiune Umiditate
    00:00 +7°C° 0 mm 1 m/s 736 mmHg 81%
    01:00 +7°C° 0 mm 1 m/s 736 mmHg 82%
    02:00 +6°C° 0 mm 1 m/s 736 mmHg 83%
    03:00 +6°C° 0 mm 1 m/s 736 mmHg 84%
    04:00 +6°C° 0 mm 1 m/s 736 mmHg 85%
    05:00 +5°C° 0 mm 1 m/s 736 mmHg 86%
    06:00 +8°C° 0 mm 1 m/s 736 mmHg 80%
    07:00 +10°C° 0 mm 1 m/s 737 mmHg 74%
    08:00 +11°C° 0 mm 0 m/s 737 mmHg 68%
    09:00 +12°C° 0 mm 0 m/s 737 mmHg 64%
    10:00 +14°C° 0 mm 0 m/s 737 mmHg 59%
    11:00 +15°C° 0 mm 0 m/s 737 mmHg 54%
    12:00 +18°C° 0 mm 1 m/s 737 mmHg 53%
    13:00 +18°C° 0 mm 1 m/s 737 mmHg 52%
    14:00 +19°C° 0 mm 1 m/s 736 mmHg 50%
    15:00 +19°C° 0 mm 1 m/s 736 mmHg 51%
    16:00 +18°C° 0 mm 1 m/s 736 mmHg 52%
    17:00 +18°C° 0 mm 1 m/s 736 mmHg 53%
    18:00 +16°C° 0 mm 2 m/s 736 mmHg 61%
    19:00 +14°C° 0 mm 2 m/s 735 mmHg 68%
    20:00 +13°C° 0 mm 2 m/s 735 mmHg 75%
    21:00 +12°C° 0 mm 2 m/s 735 mmHg 75%
    22:00 +10°C° 0 mm 2 m/s 735 mmHg 75%
    23:00 +9°C° 0 mm 2 m/s 735 mmHg 76%
    Arată mai mult